Location: Catstown
(52.4386°N, 7.2633°W)
Time: 12:41:24
(UTC+00:00)

Cosmos 1833 Rocket - Pass Details

Date: 18 September 2020
Orbit: 831 x 841 km, 71.0° (Epoch: 21 October)

Event Time Altitude Azimuth Distance (km) Brightness Sun altitude
Rises 19:56:57 0° 328° (NNW) 3,408 6.7 -12.9°
Reaches altitude 10° 19:59:51 10° 342° (NNW) 2,471 5.7 -13.3°
Maximum altitude 20:04:31 26° 37° (NE) 1,620 4.0 -14.0°
Enters shadow 20:07:41 16° 81° (E) 2,050 4.2 -14.4°
